Voltar ao catálogo

IRIDIUM 24

AtivoComunicaçõesPO
NORAD 25105·PAYLOAD·🇺🇸 United States

Lançado Dec 20, 1997 de Vandenberg Space Force Base

Loading…

Próximas Passagens (próximas 24 horas)

TLE

AtualizadoSource: Space-Track

Época: Sep 14, 2026, 10:30 UTC

1 25105U 97082B   26257.43799785  .00000279  00000-0  77892-4 0  9998
2 25105  86.3858 247.5259 0012114  27.0740 333.1090 14.42568980508690

Acompanhe IRIDIUM 24 em tempo real com AllMySat

Download on the App Store